Year,Month,Day,Hour,Minute,Value (Times are PST for temperature in C)
2016,04,17,00,00,8.90
2016,04,17,00,01,8.90
2016,04,17,00,02,8.90
2016,04,17,00,03,8.90
2016,04,17,00,04,8.90
2016,04,17,00,05,8.90
2016,04,17,00,06,8.90
2016,04,17,00,07,8.90
2016,04,17,00,08,8.90
2016,04,17,00,09,8.90
2016,04,17,00,10,8.90
2016,04,17,00,11,8.90
2016,04,17,00,12,8.90
2016,04,17,00,13,8.80
2016,04,17,00,14,8.80
2016,04,17,00,15,8.80
2016,04,17,00,16,8.80
2016,04,17,00,17,8.80
2016,04,17,00,18,8.70
2016,04,17,00,19,8.70
2016,04,17,00,20,8.70
2016,04,17,00,21,8.70
2016,04,17,00,22,8.60
2016,04,17,00,23,8.60
2016,04,17,00,24,8.60
2016,04,17,00,25,8.50
2016,04,17,00,26,8.50
2016,04,17,00,27,8.50
2016,04,17,00,28,8.40
2016,04,17,00,29,8.40
2016,04,17,00,30,8.40
2016,04,17,00,31,8.40
2016,04,17,00,32,8.50
2016,04,17,00,33,8.50
2016,04,17,00,34,8.60
2016,04,17,00,35,8.60
2016,04,17,00,36,8.70
2016,04,17,00,37,8.70
2016,04,17,00,38,8.70
2016,04,17,00,39,8.70
2016,04,17,00,40,8.70
2016,04,17,00,41,8.70
2016,04,17,00,42,8.60
2016,04,17,00,43,8.60
2016,04,17,00,44,8.60
2016,04,17,00,45,8.60
2016,04,17,00,46,8.60
2016,04,17,00,47,8.50
2016,04,17,00,48,8.50
2016,04,17,00,49,8.50
2016,04,17,00,50,8.50
2016,04,17,00,51,8.50
2016,04,17,00,52,8.50
2016,04,17,00,53,8.50
2016,04,17,00,54,8.50
2016,04,17,00,55,8.50
2016,04,17,00,56,8.60
2016,04,17,00,57,8.60
2016,04,17,00,58,8.60
2016,04,17,00,59,8.60
2016,04,17,01,00,8.60
2016,04,17,01,01,8.50
2016,04,17,01,02,8.50
2016,04,17,01,03,8.50
2016,04,17,01,04,8.40
2016,04,17,01,05,8.40
2016,04,17,01,06,8.40
2016,04,17,01,07,8.40
2016,04,17,01,08,8.30
2016,04,17,01,09,8.30
2016,04,17,01,10,8.30
2016,04,17,01,11,8.30
2016,04,17,01,12,8.30
2016,04,17,01,13,8.40
2016,04,17,01,14,8.40
2016,04,17,01,15,8.40
2016,04,17,01,16,8.40
2016,04,17,01,17,8.40
2016,04,17,01,18,8.40
2016,04,17,01,19,8.40
2016,04,17,01,20,8.40
2016,04,17,01,21,8.40
2016,04,17,01,22,8.40
2016,04,17,01,23,8.40
2016,04,17,01,24,8.40
2016,04,17,01,25,8.40
2016,04,17,01,26,8.30
2016,04,17,01,27,8.30
2016,04,17,01,28,8.30
2016,04,17,01,29,8.30
2016,04,17,01,30,8.30
2016,04,17,01,31,8.20
2016,04,17,01,32,8.20
2016,04,17,01,33,8.20
2016,04,17,01,34,8.20
2016,04,17,01,35,8.20
2016,04,17,01,36,8.20
2016,04,17,01,37,8.20
2016,04,17,01,38,8.10
2016,04,17,01,39,8.10
2016,04,17,01,40,8.10
2016,04,17,01,41,8.10
2016,04,17,01,42,8.00
2016,04,17,01,43,8.00
2016,04,17,01,44,8.00
2016,04,17,01,45,8.00
2016,04,17,01,46,8.00
2016,04,17,01,47,8.00
2016,04,17,01,48,8.00
2016,04,17,01,49,8.00
2016,04,17,01,50,8.00
2016,04,17,01,51,8.00
2016,04,17,01,52,8.00
2016,04,17,01,53,8.00
2016,04,17,01,54,8.00
2016,04,17,01,55,8.00
2016,04,17,01,56,8.10
2016,04,17,01,57,8.10
2016,04,17,01,58,8.10
2016,04,17,01,59,8.10
2016,04,17,02,00,8.10
2016,04,17,02,01,8.10
2016,04,17,02,02,8.10
2016,04,17,02,03,8.10
2016,04,17,02,04,8.10
2016,04,17,02,05,8.10
2016,04,17,02,06,8.10
2016,04,17,02,07,8.10
2016,04,17,02,08,8.10
2016,04,17,02,09,8.20
2016,04,17,02,10,8.20
2016,04,17,02,11,8.20
2016,04,17,02,12,8.20
2016,04,17,02,13,8.20
2016,04,17,02,14,8.10
2016,04,17,02,15,8.10
2016,04,17,02,16,8.10
2016,04,17,02,17,8.10
2016,04,17,02,18,8.10
2016,04,17,02,19,8.10
2016,04,17,02,20,8.10
2016,04,17,02,21,8.10
2016,04,17,02,22,8.10
2016,04,17,02,23,8.10
2016,04,17,02,24,8.10
2016,04,17,02,25,8.10
2016,04,17,02,26,8.10
2016,04,17,02,27,8.10
2016,04,17,02,28,8.10
2016,04,17,02,29,8.10
2016,04,17,02,30,8.10
2016,04,17,02,31,8.10
2016,04,17,02,32,8.00
2016,04,17,02,33,8.00
2016,04,17,02,34,8.00
2016,04,17,02,35,8.00
2016,04,17,02,36,8.00
2016,04,17,02,37,8.00
2016,04,17,02,38,8.00
2016,04,17,02,39,8.00
2016,04,17,02,40,7.90
2016,04,17,02,41,7.90
2016,04,17,02,42,7.90
2016,04,17,02,43,7.90
2016,04,17,02,44,7.90
2016,04,17,02,45,7.80
2016,04,17,02,46,7.80
2016,04,17,02,47,7.80
2016,04,17,02,48,7.80
2016,04,17,02,49,7.80
2016,04,17,02,50,7.80
2016,04,17,02,51,7.80
2016,04,17,02,52,7.80
2016,04,17,02,53,7.80
2016,04,17,02,54,7.80
2016,04,17,02,55,7.80
2016,04,17,02,56,7.80
2016,04,17,02,57,7.80
2016,04,17,02,58,7.80
2016,04,17,02,59,7.80
2016,04,17,03,00,7.80
2016,04,17,03,01,7.80
2016,04,17,03,02,7.80
2016,04,17,03,03,7.80
2016,04,17,03,04,7.80
2016,04,17,03,05,7.70
2016,04,17,03,06,7.70
2016,04,17,03,07,7.70
2016,04,17,03,08,7.70
2016,04,17,03,09,7.60
2016,04,17,03,10,7.60
2016,04,17,03,11,7.60
2016,04,17,03,12,7.60
2016,04,17,03,13,7.60
2016,04,17,03,14,7.60
2016,04,17,03,15,7.70
2016,04,17,03,16,7.70
2016,04,17,03,17,7.70
2016,04,17,03,18,7.70
2016,04,17,03,19,7.70
2016,04,17,03,20,7.70
2016,04,17,03,21,7.70
2016,04,17,03,22,7.70
2016,04,17,03,23,7.70
2016,04,17,03,24,7.70
2016,04,17,03,25,7.70
2016,04,17,03,26,7.70
2016,04,17,03,27,7.70
2016,04,17,03,28,7.60
2016,04,17,03,29,7.60
2016,04,17,03,30,7.60
2016,04,17,03,31,7.60
2016,04,17,03,32,7.60
2016,04,17,03,33,7.60
2016,04,17,03,34,7.60
2016,04,17,03,35,7.60
2016,04,17,03,36,7.60
2016,04,17,03,37,7.60
2016,04,17,03,38,7.60
2016,04,17,03,39,7.60
2016,04,17,03,40,7.60
2016,04,17,03,41,7.60
2016,04,17,03,42,7.50
2016,04,17,03,43,7.50
2016,04,17,03,44,7.50
2016,04,17,03,45,7.50
2016,04,17,03,46,7.40
2016,04,17,03,47,7.40
2016,04,17,03,48,7.40
2016,04,17,03,49,7.40
2016,04,17,03,50,7.40
2016,04,17,03,51,7.50
2016,04,17,03,52,7.50
2016,04,17,03,53,7.50
2016,04,17,03,54,7.50
2016,04,17,03,55,7.50
2016,04,17,03,56,7.40
2016,04,17,03,57,7.40
2016,04,17,03,58,7.40
2016,04,17,03,59,7.40
2016,04,17,04,00,7.40
2016,04,17,04,01,7.40
2016,04,17,04,02,7.40
2016,04,17,04,03,7.40
2016,04,17,04,04,7.40
2016,04,17,04,05,7.40
2016,04,17,04,06,7.40
2016,04,17,04,07,7.40
2016,04,17,04,08,7.40
2016,04,17,04,09,7.30
2016,04,17,04,10,7.30
2016,04,17,04,11,7.30
2016,04,17,04,12,7.30
2016,04,17,04,13,7.40
2016,04,17,04,14,7.40
2016,04,17,04,15,7.40
2016,04,17,04,16,7.30
2016,04,17,04,17,7.30
2016,04,17,04,18,7.30
2016,04,17,04,19,7.40
2016,04,17,04,20,7.40
2016,04,17,04,21,7.30
2016,04,17,04,22,7.30
2016,04,17,04,23,7.30
2016,04,17,04,24,7.30
2016,04,17,04,25,7.30
2016,04,17,04,26,7.30
2016,04,17,04,27,7.30
2016,04,17,04,28,7.40
2016,04,17,04,29,7.40
2016,04,17,04,30,7.40
2016,04,17,04,31,7.40
2016,04,17,04,32,7.40
2016,04,17,04,33,7.40
2016,04,17,04,34,7.40
2016,04,17,04,35,7.40
2016,04,17,04,36,7.30
2016,04,17,04,37,7.30
2016,04,17,04,38,7.30
2016,04,17,04,39,7.30
2016,04,17,04,40,7.30
2016,04,17,04,41,7.30
2016,04,17,04,42,7.30
2016,04,17,04,43,7.30
2016,04,17,04,44,7.30
2016,04,17,04,45,7.30
2016,04,17,04,46,7.30
2016,04,17,04,47,7.30
2016,04,17,04,48,7.30
2016,04,17,04,49,7.40
2016,04,17,04,50,7.40
2016,04,17,04,51,7.50
2016,04,17,04,52,7.50
2016,04,17,04,53,7.50
2016,04,17,04,54,7.50
2016,04,17,04,55,7.50
2016,04,17,04,56,7.50
2016,04,17,04,57,7.50
2016,04,17,04,58,7.60
2016,04,17,04,59,7.60
2016,04,17,05,00,7.60
2016,04,17,05,01,7.60
2016,04,17,05,02,7.60
2016,04,17,05,03,7.70
2016,04,17,05,04,7.70
2016,04,17,05,05,7.70
2016,04,17,05,06,7.70
2016,04,17,05,07,7.70
2016,04,17,05,08,7.70
2016,04,17,05,09,7.70
2016,04,17,05,10,7.70
2016,04,17,05,11,7.70
2016,04,17,05,12,7.70
2016,04,17,05,13,7.70
2016,04,17,05,14,7.70
2016,04,17,05,15,7.70
2016,04,17,05,16,7.70
2016,04,17,05,17,7.70
2016,04,17,05,18,7.70
2016,04,17,05,19,7.70
2016,04,17,05,20,7.70
2016,04,17,05,21,7.70
2016,04,17,05,22,7.70
2016,04,17,05,23,7.70
2016,04,17,05,24,7.70
2016,04,17,05,25,7.70
2016,04,17,05,26,7.70
2016,04,17,05,27,7.70
2016,04,17,05,28,7.70
2016,04,17,05,29,7.70
2016,04,17,05,30,7.60
2016,04,17,05,31,7.60
2016,04,17,05,32,7.60
2016,04,17,05,33,7.60
2016,04,17,05,34,7.60
2016,04,17,05,35,7.60
2016,04,17,05,36,7.60
2016,04,17,05,37,7.60
2016,04,17,05,38,7.60
2016,04,17,05,39,7.60
2016,04,17,05,40,7.60
2016,04,17,05,41,7.60
2016,04,17,05,42,7.60
2016,04,17,05,43,7.60
2016,04,17,05,44,7.60
2016,04,17,05,45,7.60
2016,04,17,05,46,7.60
2016,04,17,05,47,7.60
2016,04,17,05,48,7.60
2016,04,17,05,49,7.60
2016,04,17,05,50,7.60
2016,04,17,05,51,7.60
2016,04,17,05,52,7.50
2016,04,17,05,53,7.50
2016,04,17,05,54,7.50
2016,04,17,05,55,7.50
2016,04,17,05,56,7.40
2016,04,17,05,57,7.40
2016,04,17,05,58,7.40
2016,04,17,05,59,7.40
2016,04,17,06,00,7.40
2016,04,17,06,01,7.40
2016,04,17,06,02,7.40
2016,04,17,06,03,7.40
2016,04,17,06,04,7.50
2016,04,17,06,05,7.40
2016,04,17,06,06,7.40
2016,04,17,06,07,7.40
2016,04,17,06,08,7.40
2016,04,17,06,09,7.40
2016,04,17,06,10,7.40
2016,04,17,06,11,7.30
2016,04,17,06,12,7.30
2016,04,17,06,13,7.30
2016,04,17,06,14,7.30
2016,04,17,06,15,7.30
2016,04,17,06,16,7.30
2016,04,17,06,17,7.30
2016,04,17,06,18,7.30
2016,04,17,06,19,7.30
2016,04,17,06,20,7.30
2016,04,17,06,21,7.30
2016,04,17,06,22,7.30
2016,04,17,06,23,7.30
2016,04,17,06,24,7.40
2016,04,17,06,25,7.40
2016,04,17,06,26,7.40
2016,04,17,06,27,7.40
2016,04,17,06,28,7.40
2016,04,17,06,29,7.50
2016,04,17,06,30,7.50
2016,04,17,06,31,7.60
2016,04,17,06,32,7.60
2016,04,17,06,33,7.60
2016,04,17,06,34,7.60
2016,04,17,06,35,7.70
2016,04,17,06,36,7.70
2016,04,17,06,37,7.70
2016,04,17,06,38,7.70
2016,04,17,06,39,7.70
2016,04,17,06,40,7.70
2016,04,17,06,41,7.70
2016,04,17,06,42,7.60
2016,04,17,06,43,7.60
2016,04,17,06,44,7.70
2016,04,17,06,45,7.70
2016,04,17,06,46,7.70
2016,04,17,06,47,7.70
2016,04,17,06,48,7.70
2016,04,17,06,49,7.70
2016,04,17,06,50,7.70
2016,04,17,06,51,7.70
2016,04,17,06,52,7.70
2016,04,17,06,53,7.70
2016,04,17,06,54,7.70
2016,04,17,06,55,8.60
2016,04,17,06,56,7.70
2016,04,17,06,57,7.70
2016,04,17,06,58,7.70
2016,04,17,06,59,7.70
2016,04,17,07,00,7.70
2016,04,17,07,01,7.70
2016,04,17,07,02,7.70
2016,04,17,07,03,7.80
2016,04,17,07,04,7.80
2016,04,17,07,05,7.90
2016,04,17,07,06,7.90
2016,04,17,07,07,7.90
2016,04,17,07,08,8.00
2016,04,17,07,09,8.00
2016,04,17,07,10,8.10
2016,04,17,07,11,8.10
2016,04,17,07,12,8.20
2016,04,17,07,13,8.20
2016,04,17,07,14,8.30
2016,04,17,07,15,8.30
2016,04,17,07,16,8.30
2016,04,17,07,17,8.40
2016,04,17,07,18,8.50
2016,04,17,07,19,8.50
2016,04,17,07,20,8.60
2016,04,17,07,21,8.70
2016,04,17,07,22,8.70
2016,04,17,07,23,8.80
2016,04,17,07,24,8.80
2016,04,17,07,25,8.80
2016,04,17,07,26,8.80
2016,04,17,07,27,8.80
2016,04,17,07,28,8.80
2016,04,17,07,29,8.80
2016,04,17,07,30,8.70
2016,04,17,07,31,8.70
2016,04,17,07,32,8.80
2016,04,17,07,33,8.80
2016,04,17,07,34,8.80
2016,04,17,07,35,8.80
2016,04,17,07,36,8.80
2016,04,17,07,37,8.80
2016,04,17,07,38,8.80
2016,04,17,07,39,8.80
2016,04,17,07,40,8.90
2016,04,17,07,41,8.90
2016,04,17,07,42,9.00
2016,04,17,07,43,9.30
2016,04,17,07,44,9.50
2016,04,17,07,45,9.80
2016,04,17,07,46,10.00
2016,04,17,07,47,10.00
2016,04,17,07,48,10.10
2016,04,17,07,49,10.20
2016,04,17,07,50,10.20
2016,04,17,07,51,10.30
2016,04,17,07,52,10.30
2016,04,17,07,53,10.30
2016,04,17,07,54,10.30
2016,04,17,07,55,10.30
2016,04,17,07,56,10.30
2016,04,17,07,57,10.40
2016,04,17,07,58,10.40
2016,04,17,07,59,10.40
2016,04,17,08,00,10.50
2016,04,17,08,01,10.50
2016,04,17,08,02,10.50
2016,04,17,08,03,10.60
2016,04,17,08,04,10.80
2016,04,17,08,05,10.90
2016,04,17,08,06,11.00
2016,04,17,08,07,11.10
2016,04,17,08,08,11.10
2016,04,17,08,09,11.20
2016,04,17,08,10,11.30
2016,04,17,08,11,11.40
2016,04,17,08,12,11.40
2016,04,17,08,13,11.50
2016,04,17,08,14,11.50
2016,04,17,08,15,11.60
2016,04,17,08,16,11.60
2016,04,17,08,17,11.60
2016,04,17,08,18,11.70
2016,04,17,08,19,11.80
2016,04,17,08,20,11.90
2016,04,17,08,21,12.00
2016,04,17,08,22,12.20
2016,04,17,08,23,12.30
2016,04,17,08,24,12.30
2016,04,17,08,25,12.40
2016,04,17,08,26,12.50
2016,04,17,08,27,12.50
2016,04,17,08,28,12.50
2016,04,17,08,29,12.50
2016,04,17,08,30,12.60
2016,04,17,08,31,12.60
2016,04,17,08,32,12.70
2016,04,17,08,33,12.70
2016,04,17,08,34,12.70
2016,04,17,08,35,12.70
2016,04,17,08,36,12.70
2016,04,17,08,37,12.80
2016,04,17,08,38,12.80
2016,04,17,08,39,12.90
2016,04,17,08,40,13.00
2016,04,17,08,41,13.10
2016,04,17,08,42,13.20
2016,04,17,08,43,13.30
2016,04,17,08,44,13.30
2016,04,17,08,45,13.40
2016,04,17,08,46,13.40
2016,04,17,08,47,13.50
2016,04,17,08,48,13.60
2016,04,17,08,49,13.60
2016,04,17,08,50,13.70
2016,04,17,08,51,13.70
2016,04,17,08,52,13.70
2016,04,17,08,53,13.70
2016,04,17,08,54,13.70
2016,04,17,08,55,13.80
2016,04,17,08,56,13.80
2016,04,17,08,57,13.80
2016,04,17,08,58,13.90
2016,04,17,08,59,13.90
2016,04,17,09,00,13.90
2016,04,17,09,01,14.00
2016,04,17,09,02,14.00
2016,04,17,09,03,14.00
2016,04,17,09,04,14.00
2016,04,17,09,05,14.10
2016,04,17,09,06,14.10
2016,04,17,09,07,14.10
2016,04,17,09,08,14.10
2016,04,17,09,09,14.10
2016,04,17,09,10,14.10
2016,04,17,09,11,14.20
2016,04,17,09,12,14.30
2016,04,17,09,13,14.30
2016,04,17,09,14,14.40
2016,04,17,09,15,14.50
2016,04,17,09,16,14.60
2016,04,17,09,17,14.70
2016,04,17,09,18,14.80
2016,04,17,09,19,14.80
2016,04,17,09,20,15.00
2016,04,17,09,21,15.10
2016,04,17,09,22,15.20
2016,04,17,09,23,15.20
2016,04,17,09,24,15.30
2016,04,17,09,25,15.30
2016,04,17,09,26,15.40
2016,04,17,09,27,15.40
2016,04,17,09,28,15.40
2016,04,17,09,29,15.50
2016,04,17,09,30,15.50
2016,04,17,09,31,15.60
2016,04,17,09,32,15.70
2016,04,17,09,33,15.80
2016,04,17,09,34,15.90
2016,04,17,09,35,15.90
2016,04,17,09,36,16.00
2016,04,17,09,37,16.00
2016,04,17,09,38,16.10
2016,04,17,09,39,16.10
2016,04,17,09,40,16.20
2016,04,17,09,41,16.30
2016,04,17,09,42,16.40
2016,04,17,09,43,16.50
2016,04,17,09,44,16.60
2016,04,17,09,45,16.70
2016,04,17,09,46,16.70
2016,04,17,09,47,16.80
2016,04,17,09,48,16.90
2016,04,17,09,49,17.00
2016,04,17,09,50,17.10
2016,04,17,09,51,17.10
2016,04,17,09,52,17.20
2016,04,17,09,53,17.20
2016,04,17,09,54,17.20
2016,04,17,09,55,17.30
2016,04,17,09,56,17.30
2016,04,17,09,57,17.30
2016,04,17,09,58,17.30
2016,04,17,09,59,17.40
2016,04,17,10,00,17.50
2016,04,17,10,01,17.60
2016,04,17,10,02,17.60
2016,04,17,10,03,17.60
2016,04,17,10,04,17.60
2016,04,17,10,05,17.60
2016,04,17,10,06,17.50
2016,04,17,10,07,17.40
2016,04,17,10,08,17.40
2016,04,17,10,09,17.30
2016,04,17,10,10,17.30
2016,04,17,10,11,17.30
2016,04,17,10,12,17.30
2016,04,17,10,13,17.30
2016,04,17,10,14,17.30
2016,04,17,10,15,17.30
2016,04,17,10,16,17.30
2016,04,17,10,17,17.30
2016,04,17,10,18,17.30
2016,04,17,10,19,17.30
2016,04,17,10,20,17.30
2016,04,17,10,21,17.30
2016,04,17,10,22,17.30
2016,04,17,10,23,17.40
2016,04,17,10,24,17.30
2016,04,17,10,25,17.30
2016,04,17,10,26,17.30
2016,04,17,10,27,17.30
2016,04,17,10,28,17.30
2016,04,17,10,29,17.30
2016,04,17,10,30,17.30
2016,04,17,10,31,17.40
2016,04,17,10,32,17.40
2016,04,17,10,33,17.40
2016,04,17,10,34,17.40
2016,04,17,10,35,17.40
2016,04,17,10,36,17.40
2016,04,17,10,37,17.40
2016,04,17,10,38,17.40
2016,04,17,10,39,17.50
2016,04,17,10,40,17.50
2016,04,17,10,41,17.50
2016,04,17,10,42,17.50
2016,04,17,10,43,17.60
2016,04,17,10,44,17.60
2016,04,17,10,45,17.60
2016,04,17,10,46,17.50
2016,04,17,10,47,17.50
2016,04,17,10,48,17.60
2016,04,17,10,49,17.50
2016,04,17,10,50,17.60
2016,04,17,10,51,17.60
2016,04,17,10,52,17.60
2016,04,17,10,53,17.70
2016,04,17,10,54,17.70
2016,04,17,10,55,17.70
2016,04,17,10,56,17.70
2016,04,17,10,57,17.60
2016,04,17,10,58,17.50
2016,04,17,10,59,17.50
2016,04,17,11,00,17.60
2016,04,17,11,01,17.60
2016,04,17,11,02,17.60
2016,04,17,11,03,17.60
2016,04,17,11,04,17.60
2016,04,17,11,05,17.70
2016,04,17,11,06,17.70
2016,04,17,11,07,17.70
2016,04,17,11,08,17.70
2016,04,17,11,09,17.70
2016,04,17,11,10,17.80
2016,04,17,11,11,17.80
2016,04,17,11,12,17.90
2016,04,17,11,13,18.00
2016,04,17,11,14,18.00
2016,04,17,11,15,18.00
2016,04,17,11,16,18.00
2016,04,17,11,17,18.00
2016,04,17,11,18,18.10
2016,04,17,11,19,18.20
2016,04,17,11,20,18.20
2016,04,17,11,21,18.20
2016,04,17,11,22,18.20
2016,04,17,11,23,18.30
2016,04,17,11,24,18.30
2016,04,17,11,25,18.40
2016,04,17,11,26,18.40
2016,04,17,11,27,18.30
2016,04,17,11,28,18.40
2016,04,17,11,29,18.50
2016,04,17,11,30,18.60
2016,04,17,11,31,18.70
2016,04,17,11,32,18.70
2016,04,17,11,33,18.80
2016,04,17,11,34,18.80
2016,04,17,11,35,18.80
2016,04,17,11,36,18.90
2016,04,17,11,37,19.00
2016,04,17,11,38,19.00
2016,04,17,11,39,19.00
2016,04,17,11,40,18.90
2016,04,17,11,41,18.80
2016,04,17,11,42,18.70
2016,04,17,11,43,18.50
2016,04,17,11,44,18.50
2016,04,17,11,45,18.40
2016,04,17,11,46,18.30
2016,04,17,11,47,18.30
2016,04,17,11,48,18.30
2016,04,17,11,49,18.30
2016,04,17,11,50,18.30
2016,04,17,11,51,18.30
2016,04,17,11,52,18.30
2016,04,17,11,53,18.40
2016,04,17,11,54,18.40
2016,04,17,11,55,18.40
2016,04,17,11,56,18.40
2016,04,17,11,57,18.40
2016,04,17,11,58,18.40
2016,04,17,11,59,18.40
2016,04,17,12,00,18.50
2016,04,17,12,01,18.60
2016,04,17,12,02,18.70
2016,04,17,12,03,18.80
2016,04,17,12,04,18.80
2016,04,17,12,05,18.90
2016,04,17,12,06,18.90
2016,04,17,12,07,18.90
2016,04,17,12,08,18.80
2016,04,17,12,09,18.80
2016,04,17,12,10,18.70
2016,04,17,12,11,18.80
2016,04,17,12,12,18.60
2016,04,17,12,13,18.50
2016,04,17,12,14,18.50
2016,04,17,12,15,18.50
2016,04,17,12,16,18.60
2016,04,17,12,17,18.70
2016,04,17,12,18,18.80
2016,04,17,12,19,18.90
2016,04,17,12,20,18.90
2016,04,17,12,21,19.00
2016,04,17,12,22,19.00
2016,04,17,12,23,19.00
2016,04,17,12,24,18.90
2016,04,17,12,25,18.80
2016,04,17,12,26,18.80
2016,04,17,12,27,18.80
2016,04,17,12,28,18.80
2016,04,17,12,29,18.90
2016,04,17,12,30,18.90
2016,04,17,12,31,18.90
2016,04,17,12,32,18.90
2016,04,17,12,33,18.90
2016,04,17,12,34,18.90
2016,04,17,12,35,18.90
2016,04,17,12,36,19.00
2016,04,17,12,37,19.10
2016,04,17,12,38,19.20
2016,04,17,12,39,19.30
2016,04,17,12,40,19.30
2016,04,17,12,41,19.30
2016,04,17,12,42,19.30
2016,04,17,12,43,19.30
2016,04,17,12,44,19.30
2016,04,17,12,45,19.40
2016,04,17,12,46,19.40
2016,04,17,12,47,19.50
2016,04,17,12,48,19.50
2016,04,17,12,49,19.60
2016,04,17,12,50,19.60
2016,04,17,12,51,19.70
2016,04,17,12,52,19.70
2016,04,17,12,53,19.70
2016,04,17,12,54,19.70
2016,04,17,12,55,19.60
2016,04,17,12,56,19.60
2016,04,17,12,57,19.60
2016,04,17,12,58,19.50
2016,04,17,12,59,19.50
2016,04,17,13,00,19.50
2016,04,17,13,01,19.50
2016,04,17,13,02,19.40
2016,04,17,13,03,19.50
2016,04,17,13,04,19.50
2016,04,17,13,05,19.60
2016,04,17,13,06,19.60
2016,04,17,13,07,19.60
2016,04,17,13,08,19.60
2016,04,17,13,09,19.60
2016,04,17,13,10,19.60
2016,04,17,13,11,19.60
2016,04,17,13,12,19.60
2016,04,17,13,13,19.60
2016,04,17,13,14,19.60
2016,04,17,13,15,19.60
2016,04,17,13,16,19.60
2016,04,17,13,17,19.60
2016,04,17,13,18,19.60
2016,04,17,13,19,19.60
2016,04,17,13,20,19.60
2016,04,17,13,21,19.60
2016,04,17,13,22,19.60
2016,04,17,13,23,19.60
2016,04,17,13,24,19.60
2016,04,17,13,25,19.60
2016,04,17,13,26,19.70
2016,04,17,13,27,19.70
2016,04,17,13,28,19.70
2016,04,17,13,29,19.80
2016,04,17,13,30,19.80
2016,04,17,13,31,19.90
2016,04,17,13,32,19.90
2016,04,17,13,33,19.90
2016,04,17,13,34,19.90
2016,04,17,13,35,19.90
2016,04,17,13,36,19.90
2016,04,17,13,37,19.90
2016,04,17,13,38,19.90
2016,04,17,13,39,19.90
2016,04,17,13,40,20.00
2016,04,17,13,41,20.00
2016,04,17,13,42,20.10
2016,04,17,13,43,20.20
2016,04,17,13,44,20.20
2016,04,17,13,45,20.20
2016,04,17,13,46,20.30
2016,04,17,13,47,20.30
2016,04,17,13,48,20.40
2016,04,17,13,49,20.40
2016,04,17,13,50,20.40
2016,04,17,13,51,20.40
2016,04,17,13,52,20.40
2016,04,17,13,53,20.40
2016,04,17,13,54,20.40
2016,04,17,13,55,20.40
2016,04,17,13,56,20.40
2016,04,17,13,57,20.40
2016,04,17,13,58,20.50
2016,04,17,13,59,20.60
2016,04,17,14,00,20.70
2016,04,17,14,01,20.80
2016,04,17,14,02,20.80
2016,04,17,14,03,20.80
2016,04,17,14,04,20.80
2016,04,17,14,05,20.70
2016,04,17,14,06,20.70
2016,04,17,14,07,20.70
2016,04,17,14,08,20.70
2016,04,17,14,09,20.70
2016,04,17,14,10,20.70
2016,04,17,14,11,20.80
2016,04,17,14,12,20.80
2016,04,17,14,13,20.90
2016,04,17,14,14,20.90
2016,04,17,14,15,20.80
2016,04,17,14,16,20.70
2016,04,17,14,17,20.70
2016,04,17,14,18,20.80
2016,04,17,14,19,20.80
2016,04,17,14,20,20.80
2016,04,17,14,21,20.80
2016,04,17,14,22,20.70
2016,04,17,14,23,20.70
2016,04,17,14,24,20.70
2016,04,17,14,25,20.70
2016,04,17,14,26,20.70
2016,04,17,14,27,20.80
2016,04,17,14,28,20.80
2016,04,17,14,29,20.90
2016,04,17,14,30,20.90
2016,04,17,14,31,20.90
2016,04,17,14,32,20.90
2016,04,17,14,33,21.00
2016,04,17,14,34,21.10
2016,04,17,14,35,21.10
2016,04,17,14,36,21.20
2016,04,17,14,37,21.30
2016,04,17,14,38,21.30
2016,04,17,14,39,21.30
2016,04,17,14,40,21.30
2016,04,17,14,41,21.30
2016,04,17,14,42,21.20
2016,04,17,14,43,21.30
2016,04,17,14,44,21.30
2016,04,17,14,45,21.40
2016,04,17,14,46,21.40
2016,04,17,14,47,21.50
2016,04,17,14,48,21.50
2016,04,17,14,49,21.50
2016,04,17,14,50,21.50
2016,04,17,14,51,21.50
2016,04,17,14,52,21.40
2016,04,17,14,53,21.40
2016,04,17,14,54,21.40
2016,04,17,14,55,21.50
2016,04,17,14,56,21.60
2016,04,17,14,57,21.60
2016,04,17,14,58,21.60
2016,04,17,14,59,21.70
2016,04,17,15,00,21.70
2016,04,17,15,01,21.70
2016,04,17,15,02,21.70
2016,04,17,15,03,21.80
2016,04,17,15,04,21.80
2016,04,17,15,05,21.80
2016,04,17,15,06,21.80
2016,04,17,15,07,21.80
2016,04,17,15,08,21.80
2016,04,17,15,09,21.80
2016,04,17,15,10,21.70
2016,04,17,15,11,21.70
2016,04,17,15,12,21.70
2016,04,17,15,13,21.60
2016,04,17,15,14,21.60
2016,04,17,15,15,21.60
2016,04,17,15,16,21.60
2016,04,17,15,17,21.60
2016,04,17,15,18,21.70
2016,04,17,15,19,21.80
2016,04,17,15,20,21.80
2016,04,17,15,21,21.80
2016,04,17,15,22,21.80
2016,04,17,15,23,21.80
2016,04,17,15,24,21.80
2016,04,17,15,25,21.80
2016,04,17,15,26,21.80
2016,04,17,15,27,21.80
2016,04,17,15,28,21.80
2016,04,17,15,29,21.80
2016,04,17,15,30,21.80
2016,04,17,15,31,21.80
2016,04,17,15,32,21.80
2016,04,17,15,33,21.80
2016,04,17,15,34,21.90
2016,04,17,15,35,21.90
2016,04,17,15,36,21.90
2016,04,17,15,37,21.90
2016,04,17,15,38,21.90
2016,04,17,15,39,21.90
2016,04,17,15,40,21.90
2016,04,17,15,41,22.00
2016,04,17,15,42,22.10
2016,04,17,15,43,22.00
2016,04,17,15,44,22.10
2016,04,17,15,45,22.10
2016,04,17,15,46,22.10
2016,04,17,15,47,22.10
2016,04,17,15,48,22.20
2016,04,17,15,49,22.30
2016,04,17,15,50,22.30
2016,04,17,15,51,22.30
2016,04,17,15,52,22.30
2016,04,17,15,53,22.30
2016,04,17,15,54,22.30
2016,04,17,15,55,22.30
2016,04,17,15,56,22.20
2016,04,17,15,57,22.20
2016,04,17,15,58,22.20
2016,04,17,15,59,22.20
2016,04,17,16,00,22.20
2016,04,17,16,01,22.20
2016,04,17,16,02,22.20
2016,04,17,16,03,22.20
2016,04,17,16,04,22.20
2016,04,17,16,05,22.20
2016,04,17,16,06,22.20
2016,04,17,16,07,22.30
2016,04,17,16,08,22.20
2016,04,17,16,09,22.30
2016,04,17,16,10,22.30
2016,04,17,16,11,22.30
2016,04,17,16,12,22.30
2016,04,17,16,13,22.30
2016,04,17,16,14,22.30
2016,04,17,16,15,22.20
2016,04,17,16,16,22.20
2016,04,17,16,17,22.20
2016,04,17,16,18,22.10
2016,04,17,16,19,22.20
2016,04,17,16,20,22.20
2016,04,17,16,21,22.10
2016,04,17,16,22,22.00
2016,04,17,16,23,22.00
2016,04,17,16,24,22.00
2016,04,17,16,25,22.00
2016,04,17,16,26,22.10
2016,04,17,16,27,22.10
2016,04,17,16,28,22.20
2016,04,17,16,29,22.20
2016,04,17,16,30,22.20
2016,04,17,16,31,22.20
2016,04,17,16,32,22.30
2016,04,17,16,33,22.30
2016,04,17,16,34,22.30
2016,04,17,16,35,22.30
2016,04,17,16,36,22.30
2016,04,17,16,37,22.30
2016,04,17,16,38,22.30
2016,04,17,16,39,22.30
2016,04,17,16,40,22.40
2016,04,17,16,41,22.40
2016,04,17,16,42,22.40
2016,04,17,16,43,22.40
2016,04,17,16,44,22.30
2016,04,17,16,45,22.40
2016,04,17,16,46,22.40
2016,04,17,16,47,22.40
2016,04,17,16,48,22.40
2016,04,17,16,49,22.40
2016,04,17,16,50,22.40
2016,04,17,16,51,22.40
2016,04,17,16,52,22.40
2016,04,17,16,53,22.40
2016,04,17,16,54,22.40
2016,04,17,16,55,22.50
2016,04,17,16,56,22.50
2016,04,17,16,57,22.60
2016,04,17,16,58,22.60
2016,04,17,16,59,22.60
2016,04,17,17,00,22.70
2016,04,17,17,01,22.70
2016,04,17,17,02,22.70
2016,04,17,17,03,22.70
2016,04,17,17,04,22.80
2016,04,17,17,05,22.80
2016,04,17,17,06,22.80
2016,04,17,17,07,22.70
2016,04,17,17,08,22.80
2016,04,17,17,09,22.80
2016,04,17,17,10,22.80
2016,04,17,17,11,22.80
2016,04,17,17,12,22.80
2016,04,17,17,13,22.80
2016,04,17,17,14,22.80
2016,04,17,17,15,22.80
2016,04,17,17,16,22.80
2016,04,17,17,17,22.80
2016,04,17,17,18,22.80
2016,04,17,17,19,22.90
2016,04,17,17,20,22.90
2016,04,17,17,21,22.90
2016,04,17,17,22,22.90
2016,04,17,17,23,22.90
2016,04,17,17,24,23.00
2016,04,17,17,25,23.00
2016,04,17,17,26,23.00
2016,04,17,17,27,23.10
2016,04,17,17,28,23.10
2016,04,17,17,29,23.10
2016,04,17,17,30,23.10
2016,04,17,17,31,23.20
2016,04,17,17,32,23.20
2016,04,17,17,33,23.20
2016,04,17,17,34,23.10
2016,04,17,17,35,22.80
2016,04,17,17,36,22.50
2016,04,17,17,37,22.30
2016,04,17,17,38,22.00
2016,04,17,17,39,21.80